Location: Bayand?r
(36.9008°N, 30.6719°E)
Time: 07:24:56
(UTC+00:00)

Daily predictions for brighter satellites

Satellite Brightness Start Highest point End
(mag) Time Altitude Azimuth Time Altitude Azimuth Time Altitude Azimuth
Cosmos 1933 3.4 17:17:36 10° N 17:21:43 83° E 17:25:48 10° S
Cosmos 405 2.9 17:18:52 10° N 17:22:19 63° E 17:25:44 10° SSE
Meteor 2-12 Rocket 4.5 17:16:45 10° S 17:22:51 70° E 17:28:58 10° NNE
Cosmos 1782 3.6 17:20:25 10° NNE 17:24:05 33° E 17:27:44 10° SE
DMSP B5D2-2 4.4 17:22:42 10° NNE 17:27:43 45° E 17:32:41 10° S
ATLAS 5 CENTAUR R/B 3.6 17:23:20 10° N 17:28:16 27° NE 17:33:46 10° ESE
SL-4 R/B 2.4 17:27:20 10° SSW 17:31:14 38° SE 17:34:51 10° ENE
Cosmos 1833 Rocket 3.6 17:27:11 10° SSE 17:31:45 26° ESE 17:36:21 10° NE
SL-08 RB Rocket 3.8 17:28:26 10° SSE 17:32:58 64° ENE 17:37:34 10° N
Cosmos 1606 4.2 17:32:35 10° NNW 17:36:12 39° W 17:39:44 10° SSW
SPOT 3 Rocket 4.4 17:34:02 10° SE 17:38:35 32° ENE 17:43:09 10° N
Cosmos 2251 Rocket 3.5 17:34:39 10° SSW 17:39:53 89° ESE 17:45:12 10° NNE
Cosmos 1727 Rocket 4.4 17:34:28 10° N 17:40:33 45° ENE 17:46:34 10° SSE
Cosmos 2228 Rocket 3.7 17:38:27 10° N 17:42:33 36° ENE 17:46:36 10° SE
Cosmos 1515 Rocket 3.6 17:41:09 10° N 17:45:37 82° E 17:50:04 10° S
Cosmos 389 Rocket 4.0 17:46:29 10° NNE 17:49:03 19° ENE 17:50:29 15° ESE
Cosmos 1812 4.2 17:46:55 10° NNE 17:49:47 20° ENE 17:51:27 15° ESE
Cosmos 972 Rocket 4.3 17:47:40 10° N 17:52:24 44° ENE 17:56:19 14° SE
Cosmos 1151 Rocket 4.4 17:48:35 10° NNW 17:52:35 40° W 17:56:34 10° SSW
Resurs 01 Rocket 2.8 17:49:57 14° ESE 17:52:47 27° ENE 17:56:29 10° NNE
Cosmos 1633 3.9 17:50:49 10° SSW 17:54:11 42° W 17:57:34 10° N
Cosmos 614 Rocket 4.1 17:54:05 10° S 17:59:03 53° ESE 18:04:05 10° NNE
Cosmos 1441 Rocket 3.6 17:56:51 10° SSE 18:00:26 40° E 18:04:00 10° NNE
Intercosmos 25 4.4 17:57:37 10° NNE 18:00:47 23° ENE 18:01:53 19° E
FALCON 9 DEB 3.4 17:58:28 10° SSW 18:01:49 45° SE 18:05:10 10° ENE
USA 267 3.3 17:57:05 10° NE 18:03:40 88° NW 18:10:12 10° SW
Cosmos 1821 Rocket 4.2 17:58:39 10° SSE 18:04:30 50° E 18:10:25 10° NNE
IRIDIUM 103 4.4 18:01:32 10° SSE 18:06:38 59° E 18:11:46 10° N
COSMOS 2406 3.2 18:03:21 10° SSW 18:09:06 87° ESE 18:14:52 10° NNE
MONITOR-E 4.2 18:13:53 23° S 18:15:07 52° W 18:17:27 10° NNW
CZ-2C R/B 3.8 18:16:17 10° N 18:20:54 80° WNW 18:25:23 10° SSW
Cosmos 2082 Rocket 2.5 18:19:08 10° S 18:24:30 44° ESE 18:29:52 10° NE
Sich 1 3.0 18:20:46 13° S 18:24:37 68° E 18:29:02 10° NNE
IRIDIUM 106 4.3 18:19:42 10° S 18:24:55 89° E 18:30:09 10° N
Shenzhou-11 Module 3.7 18:23:14 10° NW 18:25:03 19° N 18:25:46 17° NNE
Cosmos 1862 3.6 18:21:03 10° SSW 18:25:04 69° W 18:29:06 10° N
SJ-6B 4.4 18:23:35 10° SSW 18:27:19 34° W 18:31:01 10° NNW
Meteor 2-6 Rocket 4.2 18:22:21 10° N 18:27:53 84° W 18:32:41 15° S
Cosmos 1818 4.3 18:24:22 10° NNW 18:29:30 40° NE 18:31:46 27° ESE
Spot 2 Rocket 4.3 18:31:13 28° ESE 18:32:49 35° ENE 18:37:25 10° N
Cosmos 2239 Rocket 4.4 18:27:42 10° S 18:33:49 75° E 18:39:57 10° N
Cosmos 1000 Rocket 4.4 18:28:30 10° N 18:34:44 68° E 18:38:27 25° SSE
USA 234 4.4 18:31:25 15° E 18:35:58 32° NNE 18:41:34 10° NNW
Cosmos 1190 Rocket 3.9 18:33:42 10° S 18:38:55 74° ESE 18:44:12 10° NNE
Resurs 1-3 4.1 18:36:07 18° S 18:39:14 57° W 18:43:33 10° NNW
Cosmos 407 Rocket 3.5 18:36:35 10° SSW 18:41:55 83° WNW 18:47:15 10° NNE
Terra 3.8 18:42:15 13° ENE 18:42:22 13° ENE 18:44:39 10° NE
CZ-2C R/B 4.5 18:40:47 10° N 18:45:15 30° WNW 18:49:44 10° SW
Cosmos 1666 Rocket 3.4 18:44:21 36° S 18:46:03 77° E 18:50:22 10° N
MetOp-B 4.1 18:44:23 36° SE 18:46:31 66° ENE 18:51:50 10° N
USA 238 DEB 3.7 18:41:05 10° S 18:47:20 49° ESE 18:53:48 10° NE
USA 238 3.7 18:41:13 10° S 18:47:27 48° ESE 18:53:53 10° NE
Meteor 1-4 Rocket 3.7 18:45:53 10° N 18:48:15 30° NE 18:48:15 30° NE
SL-8 R/B 3.8 18:44:40 10° NW 18:49:30 69° NNE 18:50:51 45° E
Meteor 1-27 Rocket 3.8 18:45:54 10° N 18:51:51 78° E 18:54:26 36° SSE
SPOT 5 4.1 18:56:40 22° ENE 18:56:40 22° ENE 18:59:36 10° NNE
SPOT 1/Viking Rocket 3.8 18:59:15 46° ESE 19:00:09 52° ENE 19:05:14 10° N
Cosmos 1980 Rocket 2.8 18:59:08 10° N 19:04:28 40° ENE 19:05:19 38° E
Cosmos 1140 Rocket 3.9 19:02:39 10° SSW 19:07:49 62° WNW 19:13:02 10° N
SL-4 R/B 3.8 19:07:22 10° W 19:10:52 29° NNW 19:14:09 10° NNE
ATLAS 5 CENTAUR R/B 2.9 19:07:18 10° NW 19:13:14 58° WSW 19:15:44 37° S
USA 32 3.9 19:12:32 63° SSE 19:13:16 74° E 19:18:30 10° N
Cosmos 1833 Rocket 4.1 19:10:16 10° SW 19:15:26 38° WNW 19:20:39 10° N
CENTAUR R/B 3.1 19:17:41 37° E 19:17:41 37° E 19:22:17 10° NE
Cosmos 1633 Rocket 3.7 19:18:03 37° SW 19:19:24 52° W 19:23:44 10° N
Cosmos 1697 Rocket 2.7 19:14:39 10° NNW 19:20:16 77° WSW 19:21:19 59° S
Cosmos 1867 3.9 19:17:37 10° SW 19:22:59 64° WNW 19:28:24 10° NNE
Resurs 01 Rocket 3.5 19:27:32 19° SW 19:29:11 24° W 19:32:47 10° NW
Landsat 7 4.1 19:30:06 57° WSW 19:30:28 59° W 19:35:11 10° NNW
Meteor 1-25 Rocket 4.2 19:35:38 63° SW 19:36:29 78° W 19:42:05 10° N
Cosmos 1470 Rocket 4.2 19:42:24 52° WNW 19:42:24 52° WNW 19:46:23 10° N
NOSS 3-2 (A) 3.6 19:36:58 12° SW 19:42:08 65° NW 19:48:21 10° NNE
Cosmos 2360 4.4 19:41:36 10° NNW 19:47:15 61° WSW 19:47:32 60° WSW
NOSS 3-2 (C) 3.3 19:48:32 72° NE 19:48:32 72° NE 19:54:09 10° NNE
ERS-1 Rocket 3.3 19:56:08 61° WNW 19:56:08 61° WNW 20:00:34 10° NNW
Cosmos 921 Rocket 4.5 19:55:39 10° NNW 19:58:03 33° NNW 19:58:03 33° NNW
SL-16 R/B 3.3 19:58:02 10° N 20:02:26 34° NE 20:02:26 34° NE
Lacrosse 5 3.6 20:02:20 10° NNW 20:06:22 23° NE 20:06:22 23° NE
Cosmos 2082 Rocket 4.3 20:04:10 10° WSW 20:08:44 24° WNW 20:13:20 10° N
USA 234 3.2 20:18:46 79° W 20:18:46 79° W 20:25:05 10° NW
Terra 3.1 20:21:08 39° NW 20:21:08 39° NW 20:24:17 10° NNW
Cosmos 2100 Rocket 4.1 20:20:53 67° N 20:20:53 67° N 20:26:08 10° N
Cosmos 2322 Rocket 3.2 20:20:16 10° N 20:24:25 38° NNE 20:24:25 38° NNE
ATLAS 3B R/B 3.7 20:34:00 33° NE 20:34:00 33° NE 20:37:30 10° NE
Cosmos 2173 Rocket 4.3 20:36:35 62° NNW 20:36:35 62° NNW 20:41:48 10° N
Cosmos 2360 Rocket 3.7 20:34:53 10° N 20:38:35 28° NE 20:38:35 28° NE
Cosmos 1980 Rocket 4.0 20:43:40 10° NW 20:47:05 23° W 20:47:05 23° W
Cosmos 2333 Rocket 4.3 20:55:55 10° N 20:59:21 19° NE 20:59:21 19° NE
CENTAUR R/B 4.0 21:04:45 25° W 21:06:58 32° NW 21:13:03 10° NNE
ATLAS 5 CENTAUR R/B 4.3 21:21:54 10° NNW 21:23:25 29° NNW 21:23:25 29° NNW
SL-16 R/B 4.3 21:42:21 10° NW 21:44:17 19° WNW 21:44:17 19° WNW
Lacrosse 5 4.4 21:44:41 10° NW 21:45:31 15° NW 21:45:31 15° NW
Cosmos 2219 Rocket 3.7 21:53:23 10° N 21:56:38 32° N 21:56:38 32° N
ATLAS 3B R/B 4.1 22:21:13 26° WNW 22:22:05 27° NW 22:27:35 10° NNE
Cosmos 2360 Rocket 4.4 22:18:47 10° NW 22:20:19 18° NW 22:20:19 18° NW
COSMOS 2428 4.2 22:19:33 10° NNW 22:22:37 33° N 22:22:37 33° N
Cosmos 2297 Rocket 3.9 22:34:19 26° NE 22:34:19 26° NE 22:36:56 10° NE
Cosmos 2333 Rocket 4.0 22:38:56 10° NNW 22:41:19 25° NW 22:41:19 25° NW
Cosmos 2237 Rocket 3.6 22:43:43 10° N 22:47:32 35° NNE 22:47:32 35° NNE
Resurs 1-4 Rocket 3.6 23:05:12 10° NNE 23:08:21 33° NE 23:08:21 33° NE
Cosmos 2227 Rocket 3.1 23:22:42 45° NNE 23:22:42 45° NNE 23:26:35 10° NNE
USA 229 DEB 4.4 23:34:40 40° E 23:34:40 40° E 23:40:14 10° NE
USA 229 4.4 23:34:45 39° E 23:34:45 39° E 23:40:17 10° NE
Cosmos 2082 4.2 23:44:06 55° NNE 23:44:06 55° NNE 23:48:27 10° NNE
SL-16 R/B 2.6 23:46:15 74° N 23:46:15 74° N 23:51:54 10° NNW
ADEOS II 2.9 23:49:00 10° NNE 23:53:32 44° E 23:53:32 44° E
